User: anonymous   Login
Location: Unspecified
(0.0000°N, 0.0000°E)
Time: 21:00:26
(UTC+01:00)
Language:

H-2A R/B - Orbit

View from above orbital plane
View from above orbital plane
View from above satellite
View from above satellite

Ground track
Ground track

The orbit data is extracted from the following two-line orbital elements,

1 26899U 01038B   18049.54798201 +.00003086 +00000-0 +75570-3 0  9998
2 26899 028.3572 325.4357 7121007 350.9337 001.1414 02.48625337142604
Epoch (UTC): 18 February 2018 13:09:05
Eccentricity: 0.7121007
inclination: 28.3572°
perigee height: 248 km
apogee height: 33028 km
right ascension of ascending node: 325.4357°
argument of perigee: 350.9337°
revolutions per day: 2.48625337
mean anomaly at epoch: 1.1414°
orbit number at epoch: 14260

The dashed part of the orbit path shows where the satellite is in the earth's shadow,  

DLR